,,Stat5,,Stat1,,Stat2,,Stat3,,Stat4,,Wind1,,Wind1,
time,status,PA1M_AVG,status,PR1M_SUM,status,RH1M_AVG,status,SR1M_AVG,status,TA1M_AVG,status,W1dAve1m,status,W1sAve1m,
2000-12-23, 00:00:00,VALID,917.099,VALID,0,VALID,98.0318,VALID,0.0169808,VALID,20.0134,VALID,216,VALID,0.172931,
2000-12-23, 00:01:00,VALID,917.09,VALID,0,VALID,98.028,VALID,0.0509425,VALID,20.0039,VALID,200,VALID,0.0721154,
2000-12-23, 00:02:00,VALID,917.079,VALID,0,VALID,97.953,VALID,0,VALID,19.9714,VALID,184,VALID,0.153245,
2000-12-23, 00:03:00,VALID,917.065,VALID,0,VALID,97.9593,VALID,0.0339617,VALID,19.9649,VALID,169,VALID,0.45012,
2000-12-23, 00:04:00,VALID,917.069,VALID,0,VALID,97.9949,VALID,0,VALID,19.9579,VALID,200,VALID,0.191406,
2000-12-23, 00:05:00,VALID,917.044,VALID,0,VALID,97.9174,VALID,0,VALID,19.9711,VALID,204,VALID,0.398638,
2000-12-23, 00:06:00,VALID,917.034,VALID,0,VALID,97.8792,VALID,0.0169808,VALID,19.9746,VALID,195,VALID,0.361161,
2000-12-23, 00:07:00,VALID,917.029,VALID,0,VALID,97.7457,VALID,0,VALID,19.9813,VALID,189,VALID,1.07109,
2000-12-23, 00:08:00,VALID,917.001,VALID,0,VALID,97.6376,VALID,0.0339617,VALID,19.9908,VALID,195,VALID,0.781684,
2000-12-23, 00:09:00,VALID,916.998,VALID,0,VALID,97.5804,VALID,0.0169808,VALID,20.0106,VALID,205,VALID,0.792101,
2000-12-23, 00:10:00,VALID,916.988,VALID,0,VALID,97.5384,VALID,0.0339617,VALID,20.0298,VALID,218,VALID,0.195946,
2000-12-23, 00:11:00,VALID,916.972,VALID,0,VALID,97.5117,VALID,0,VALID,20.0362,VALID,200,VALID,0.408512,
2000-12-23, 00:12:00,VALID,916.949,VALID,0,VALID,97.5321,VALID,0,VALID,20.0559,VALID,223,VALID,0.00911458,
2000-12-23, 00:13:00,VALID,916.949,VALID,0,VALID,97.5422,VALID,0,VALID,20.0522,VALID,223,VALID,0.073902,
2000-12-23, 00:14:00,VALID,916.926,VALID,0,VALID,97.541,VALID,0.0169808,VALID,20.0591,VALID,227,VALID,0.366741,
2000-12-23, 00:15:00,VALID,916.909,VALID,0,VALID,97.4939,VALID,0.0169808,VALID,20.0492,VALID,227,VALID,0.536184,
2000-12-23, 00:16:00,VALID,916.903,VALID,0,VALID,97.4609,VALID,0.0169808,VALID,20.0392,VALID,214,VALID,0.439823,
2000-12-23, 00:17:00,VALID,916.883,VALID,0,VALID,97.471,VALID,0,VALID,20.0459,VALID,233,VALID,0.522294,
2000-12-23, 00:18:00,VALID,916.874,VALID,0,VALID,97.4685,VALID,0.0509425,VALID,20.0459,VALID,237,VALID,0.61543,
2000-12-23, 00:19:00,VALID,916.858,VALID,0,VALID,97.4329,VALID,0,VALID,20.0325,VALID,218,VALID,0.721012,
2000-12-23, 00:20:00,VALID,916.843,VALID,0,VALID,97.4481,VALID,0,VALID,20.0298,VALID,221,VALID,0.415913,
2000-12-23, 00:21:00,VALID,916.833,VALID,0,VALID,97.4329,VALID,0.0509425,VALID,20.0258,VALID,220,VALID,0.695117,
2000-12-23, 00:22:00,VALID,916.798,VALID,0,VALID,97.4329,VALID,0.0169808,VALID,20.0462,VALID,233,VALID,0.452925,
2000-12-23, 00:23:00,VALID,916.812,VALID,0,VALID,97.4176,VALID,0.0169808,VALID,20.0459,VALID,223,VALID,0.531027,
2000-12-23, 00:24:00,VALID,916.789,VALID,0,VALID,97.3744,VALID,0.0169808,VALID,20.0459,VALID,231,VALID,0.622656,
2000-12-23, 00:25:00,VALID,916.765,VALID,0,VALID,97.251,VALID,0,VALID,20.0397,VALID,194,VALID,0.827474,
2000-12-23, 00:26:00,VALID,916.752,VALID,0,VALID,97.1709,VALID,0.0169808,VALID,20.0527,VALID,212,VALID,0.324002,
2000-12-23, 00:27:00,VALID,916.734,VALID,0,VALID,97.1175,VALID,0,VALID,20.0425,VALID,223,VALID,0.325921,
2000-12-23, 00:28:00,VALID,916.73,VALID,0,VALID,96.9955,VALID,0,VALID,20.0427,VALID,229,VALID,0.85403,
2000-12-23, 00:29:00,VALID,916.697,VALID,0,VALID,96.881,VALID,-0.0169808,VALID,20.0392,VALID,226,VALID,0.753084,
2000-12-23, 00:30:00,VALID,916.696,VALID,0,VALID,96.8454,VALID,0,VALID,20.0527,VALID,221,VALID,0.723184,
2000-12-23, 00:31:00,VALID,916.688,VALID,0,VALID,96.8238,VALID,0.0339617,VALID,20.0723,VALID,225,VALID,0.789063,
2000-12-23, 00:32:00,VALID,916.674,VALID,0,VALID,96.8454,VALID,0,VALID,20.0718,VALID,225,VALID,1.10473,
2000-12-23, 00:33:00,VALID,916.676,VALID,0,VALID,96.9128,VALID,0,VALID,20.0785,VALID,211,VALID,0.642475,
2000-12-23, 00:34:00,VALID,916.676,VALID,0,VALID,96.9509,VALID,0,VALID,20.0815,VALID,222,VALID,0.494591,
2000-12-23, 00:35:00,VALID,916.663,VALID,0,VALID,96.9827,VALID,-0.0849042,VALID,20.0731,VALID,223,VALID,0.532252,
2000-12-23, 00:36:00,VALID,916.649,VALID,0,VALID,97.0756,VALID,-0.0849042,VALID,20.0668,VALID,210,VALID,0.472973,
2000-12-23, 00:37:00,VALID,916.634,VALID,0,VALID,97.1341,VALID,-0.0849042,VALID,20.0741,VALID,226,VALID,0.512952,
2000-12-23, 00:38:00,VALID,916.638,VALID,0,VALID,97.1468,VALID,-0.0849042,VALID,20.0674,VALID,232,VALID,0.373598,
2000-12-23, 00:39:00,VALID,916.625,VALID,0,VALID,97.1048,VALID,-0.101885,VALID,20.0445,VALID,220,VALID,0.728966,
2000-12-23, 00:40:00,VALID,916.623,VALID,0,VALID,97.0361,VALID,-0.101885,VALID,20.0276,VALID,209,VALID,0.5108,
2000-12-23, 00:41:00,VALID,916.613,VALID,0,VALID,97.0323,VALID,-0.0849042,VALID,20.0283,VALID,194,VALID,0.015625,
2000-12-23, 00:42:00,VALID,916.598,VALID,0,VALID,97.026,VALID,-0.101885,VALID,20.0214,VALID,197,VALID,0,
2000-12-23, 00:43:00,VALID,916.603,VALID,0,VALID,97.0705,VALID,-0.0679233,VALID,20.041,VALID,216,VALID,0,
2000-12-23, 00:44:00,VALID,916.605,VALID,0,VALID,97.0565,VALID,-0.118866,VALID,20.0348,VALID,213,VALID,0,
2000-12-23, 00:45:00,VALID,916.59,VALID,0,VALID,97.0501,VALID,-0.0849042,VALID,20.0383,VALID,213,VALID,0,
2000-12-23, 00:46:00,VALID,916.577,VALID,0,VALID,97.0425,VALID,-0.101885,VALID,20.0191,VALID,211,VALID,0,
2000-12-23, 00:47:00,VALID,916.559,VALID,0,VALID,97.0082,VALID,-0.101885,VALID,20.0054,VALID,209,VALID,0,
2000-12-23, 00:48:00,VALID,916.556,VALID,0,VALID,96.9586,VALID,-0.0849042,VALID,19.9955,VALID,235,VALID,0,
2000-12-23, 00:49:00,VALID,916.553,VALID,0,VALID,97.0031,VALID,-0.0849042,VALID,19.9928,VALID,235,VALID,0,
2000-12-23, 00:50:00,VALID,916.547,VALID,0,VALID,97.1035,VALID,-0.0509425,VALID,19.9955,VALID,235,VALID,0,
2000-12-23, 00:51:00,VALID,916.538,VALID,0,VALID,97.1404,VALID,-0.101885,VALID,19.9895,VALID,235,VALID,0,
2000-12-23, 00:52:00,VALID,916.509,VALID,0,VALID,97.1226,VALID,-0.0849042,VALID,19.9664,VALID,238,VALID,0,
2000-12-23, 00:53:00,VALID,916.497,VALID,0,VALID,97.1163,VALID,-0.0679233,VALID,19.9505,VALID,256,VALID,0,
2000-12-23, 00:54:00,VALID,916.488,VALID,0,VALID,97.1658,VALID,-0.0849042,VALID,19.9508,VALID,262,VALID,0,
2000-12-23, 00:55:00,VALID,916.485,VALID,0,VALID,97.2663,VALID,-0.0679233,VALID,19.9344,VALID,262,VALID,0,
2000-12-23, 00:56:00,VALID,916.476,VALID,0,VALID,97.3401,VALID,-0.0849042,VALID,19.9147,VALID,266,VALID,0,
2000-12-23, 00:57:00,VALID,916.458,VALID,0,VALID,97.4189,VALID,-0.0849042,VALID,19.8921,VALID,283,VALID,0,
2000-12-23, 00:58:00,VALID,916.453,VALID,0,VALID,97.4914,VALID,-0.0849042,VALID,19.8824,VALID,283,VALID,0,
2000-12-23, 00:59:00,VALID,916.436,VALID,0,VALID,97.5524,VALID,-0.0509425,VALID,19.8633,VALID,283,VALID,0,
2000-12-23, 01:00:00,VALID,916.424,VALID,0,VALID,97.6007,VALID,-0.0679233,VALID,19.8471,VALID,283,VALID,0,
2000-12-23, 01:01:00,VALID,916.401,VALID,0,VALID,97.6732,VALID,-0.101885,VALID,19.8245,VALID,289,VALID,0,
2000-12-23, 01:02:00,VALID,916.395,VALID,0,VALID,97.7584,VALID,-0.0509425,VALID,19.815,VALID,291,VALID,0,
2000-12-23, 01:03:00,VALID,916.364,VALID,0,VALID,97.8373,VALID,-0.0509425,VALID,19.7924,VALID,291,VALID,0,
2000-12-23, 01:04:00,VALID,916.351,VALID,0,VALID,97.9186,VALID,-0.0339617,VALID,19.7959,VALID,291,VALID,0,
2000-12-23, 01:05:00,VALID,916.329,VALID,0,VALID,97.986,VALID,-0.0509425,VALID,19.7959,VALID,291,VALID,0,
2000-12-23, 01:06:00,VALID,916.31,VALID,0,VALID,98.0331,VALID,-0.0849042,VALID,19.7566,VALID,291,VALID,0,
2000-12-23, 01:07:00,VALID,916.295,VALID,0,VALID,98.0979,VALID,-0.118866,VALID,19.7534,VALID,291,VALID,0,
2000-12-23, 01:08:00,VALID,916.288,VALID,0,VALID,98.1437,VALID,-0.0679233,VALID,19.7502,VALID,291,VALID,0,
2000-12-23, 01:09:00,VALID,916.276,VALID,0,VALID,98.1285,VALID,-0.101885,VALID,19.7246,VALID,291,VALID,0,
2000-12-23, 01:10:00,VALID,916.257,VALID,0,VALID,98.0216,VALID,-0.0849042,VALID,19.6796,VALID,291,VALID,0,
2000-12-23, 01:11:00,VALID,916.246,VALID,0,VALID,98.0013,VALID,-0.0509425,VALID,19.6279,VALID,291,VALID,0,
2000-12-23, 01:12:00,VALID,916.221,VALID,0,VALID,98.0458,VALID,-0.0849042,VALID,19.6082,VALID,291,VALID,0,
2000-12-23, 01:13:00,VALID,916.203,VALID,0,VALID,98.0712,VALID,-0.0849042,VALID,19.6023,VALID,291,VALID,0,
2000-12-23, 01:14:00,VALID,916.197,VALID,0,VALID,98.0903,VALID,-0.0849042,VALID,19.5628,VALID,291,VALID,0,
2000-12-23, 01:15:00,VALID,916.18,VALID,0,VALID,98.075,VALID,-0.0679233,VALID,19.5372,VALID,291,VALID,0,
2000-12-23, 01:16:00,VALID,916.167,VALID,0,VALID,98.0356,VALID,-0.0679233,VALID,19.4947,VALID,291,VALID,0,
2000-12-23, 01:17:00,VALID,916.154,VALID,0,VALID,98.1234,VALID,-0.0849042,VALID,19.4919,VALID,287,VALID,0,
2000-12-23, 01:18:00,VALID,916.142,VALID,0,VALID,98.1869,VALID,-0.0849042,VALID,19.5019,VALID,287,VALID,0,
2000-12-23, 01:19:00,VALID,916.132,VALID,0,VALID,98.206,VALID,-0.0849042,VALID,19.5051,VALID,287,VALID,0,
2000-12-23, 01:20:00,VALID,916.132,VALID,0,VALID,98.2022,VALID,-0.0679233,VALID,19.4725,VALID,287,VALID,0,
2000-12-23, 01:21:00,VALID,916.123,VALID,0,VALID,98.0852,VALID,-0.0849042,VALID,19.4144,VALID,287,VALID,0,
2000-12-23, 01:22:00,VALID,916.128,VALID,0,VALID,98.07,VALID,-0.0849042,VALID,19.3664,VALID,287,VALID,0,
2000-12-23, 01:23:00,VALID,916.1,VALID,0,VALID,98.0941,VALID,-0.0679233,VALID,19.3403,VALID,193,VALID,0,
2000-12-23, 01:24:00,VALID,916.098,VALID,0,VALID,98.159,VALID,-0.0679233,VALID,19.314,VALID,136,VALID,0,
2000-12-23, 01:25:00,VALID,916.079,VALID,0,VALID,98.22,VALID,-0.0849042,VALID,19.3177,VALID,136,VALID,0,
2000-12-23, 01:26:00,VALID,916.076,VALID,0,VALID,98.2874,VALID,0.0679233,VALID,19.3287,VALID,136,VALID,0,
2000-12-23, 01:27:00,VALID,916.067,VALID,0,VALID,98.3459,VALID,0.0169808,VALID,19.3324,VALID,136,VALID,0,
2000-12-23, 01:28:00,VALID,916.06,VALID,0,VALID,98.2429,VALID,0,VALID,19.2906,VALID,136,VALID,0,
2000-12-23, 01:29:00,VALID,916.06,VALID,0,VALID,98.1971,VALID,0.0339617,VALID,19.2484,VALID,136,VALID,0,
2000-12-23, 01:30:00,VALID,916.057,VALID,0,VALID,98.2086,VALID,0,VALID,19.2069,VALID,136,VALID,0,
2000-12-23, 01:31:00,VALID,916.039,VALID,0,VALID,98.2289,VALID,0.0169808,VALID,19.1838,VALID,136,VALID,0,
2000-12-23, 01:32:00,VALID,916.035,VALID,0,VALID,98.2378,VALID,0,VALID,19.1617,VALID,136,VALID,0,
2000-12-23, 01:33:00,VALID,916.039,VALID,0,VALID,98.3167,VALID,0.0169808,VALID,19.1485,VALID,136,VALID,0,
2000-12-23, 01:34:00,VALID,916.008,VALID,0,VALID,98.3866,VALID,0.0339617,VALID,19.1584,VALID,136,VALID,0,
2000-12-23, 01:35:00,VALID,915.993,VALID,0,VALID,98.5176,VALID,0.0169808,VALID,19.1748,VALID,136,VALID,0,
2000-12-23, 01:36:00,VALID,915.99,VALID,0,VALID,98.6104,VALID,0.0169808,VALID,19.19,VALID,136,VALID,0,
2000-12-23, 01:37:00,VALID,915.982,VALID,0,VALID,98.632,VALID,-0.0169808,VALID,19.2268,VALID,136,VALID,0,
2000-12-23, 01:38:00,VALID,915.984,VALID,0,VALID,98.6053,VALID,0.0169808,VALID,19.2196,VALID,136,VALID,0,
2000-12-23, 01:39:00,VALID,915.974,VALID,0,VALID,98.5748,VALID,0.0169808,VALID,19.1997,VALID,136,VALID,0,
2000-12-23, 01:40:00,VALID,915.954,VALID,0,VALID,98.5608,VALID,0.0169808,VALID,19.1937,VALID,136,VALID,0,
2000-12-23, 01:41:00,VALID,915.934,VALID,0,VALID,98.5532,VALID,0.0339617,VALID,19.1843,VALID,136,VALID,0,
2000-12-23, 01:42:00,VALID,915.918,VALID,0,VALID,98.5684,VALID,0,VALID,19.1642,VALID,136,VALID,0,
2000-12-23, 01:43:00,VALID,915.91,VALID,0,VALID,98.5379,VALID,-0.0169808,VALID,19.1582,VALID,136,VALID,0,
2000-12-23, 01:44:00,VALID,915.91,VALID,0,VALID,98.412,VALID,0,VALID,19.1003,VALID,136,VALID,0,
2000-12-23, 01:45:00,VALID,915.891,VALID,0,VALID,98.4069,VALID,0,VALID,19.0555,VALID,136,VALID,0,
2000-12-23, 01:46:00,VALID,915.902,VALID,0,VALID,98.4565,VALID,0,VALID,19.0359,VALID,136,VALID,0,
2000-12-23, 01:47:00,VALID,915.896,VALID,0,VALID,98.4578,VALID,0,VALID,19.0232,VALID,136,VALID,0,
2000-12-23, 01:48:00,VALID,915.895,VALID,0,VALID,98.3866,VALID,0,VALID,18.9547,VALID,99,VALID,0,
2000-12-23, 01:49:00,VALID,915.878,VALID,0,VALID,98.4692,VALID,-0.0169808,VALID,18.9554,VALID,86,VALID,0,
2000-12-23, 01:50:00,VALID,915.859,VALID,0,VALID,98.5659,VALID,0,VALID,18.9616,VALID,68,VALID,0,
2000-12-23, 01:51:00,VALID,915.86,VALID,0,VALID,98.7007,VALID,0,VALID,19.0198,VALID,70,VALID,0,
2000-12-23, 01:52:00,VALID,915.859,VALID,0,VALID,98.7693,VALID,0.0169808,VALID,19.062,VALID,71,VALID,0,
2000-12-23, 01:53:00,VALID,915.85,VALID,0,VALID,98.8215,VALID,0.0169808,VALID,19.0712,VALID,71,VALID,0,
2000-12-23, 01:54:00,VALID,915.843,VALID,0,VALID,98.8126,VALID,0.0169808,VALID,19.0749,VALID,71,VALID,0,
2000-12-23, 01:55:00,VALID,915.826,VALID,0,VALID,98.8164,VALID,0.0339617,VALID,19.0481,VALID,71,VALID,0,
2000-12-23, 01:56:00,VALID,915.82,VALID,0,VALID,98.838,VALID,0.0509425,VALID,19.0588,VALID,71,VALID,0,
2000-12-23, 01:57:00,VALID,915.814,VALID,0,VALID,98.8329,VALID,0.0169808,VALID,19.0553,VALID,71,VALID,0,
2000-12-23, 01:58:00,VALID,915.809,VALID,0,VALID,98.8673,VALID,0.0509425,VALID,19.0712,VALID,71,VALID,0,
2000-12-23, 01:59:00,VALID,915.799,VALID,0,VALID,98.9181,VALID,-0.0169808,VALID,19.107,VALID,71,VALID,0,
2000-12-23, 02:00:00,VALID,915.781,VALID,0,VALID,98.955,VALID,0.0169808,VALID,19.1487,VALID,71,VALID,0,
2000-12-23, 02:01:00,VALID,915.769,VALID,0,VALID,98.9677,VALID,0,VALID,19.1621,VALID,71,VALID,0,
2000-12-23, 02:02:00,VALID,915.773,VALID,0,VALID,98.9575,VALID,0.0169808,VALID,19.1557,VALID,71,VALID,0,
2000-12-23, 02:03:00,VALID,915.762,VALID,0,VALID,98.9423,VALID,0,VALID,19.1557,VALID,71,VALID,0,
2000-12-23, 02:04:00,VALID,915.753,VALID,0,VALID,98.9397,VALID,0,VALID,19.1589,VALID,71,VALID,0,
2000-12-23, 02:05:00,VALID,915.746,VALID,0,VALID,98.9741,VALID,0,VALID,19.1716,VALID,71,VALID,0,
2000-12-23, 02:06:00,VALID,915.725,VALID,0,VALID,98.9792,VALID,0.0169808,VALID,19.1875,VALID,71,VALID,0,
2000-12-23, 02:07:00,VALID,915.711,VALID,0,VALID,98.9881,VALID,0.0339617,VALID,19.2041,VALID,71,VALID,0,
2000-12-23, 02:08:00,VALID,915.708,VALID,0,VALID,98.9601,VALID,0.0509425,VALID,19.1877,VALID,71,VALID,0,
2000-12-23, 02:09:00,VALID,915.691,VALID,0,VALID,98.9143,VALID,0.0509425,VALID,19.1592,VALID,182,VALID,0,
2000-12-23, 02:10:00,VALID,915.676,VALID,0,VALID,98.9741,VALID,0,VALID,19.1524,VALID,224,VALID,0,
2000-12-23, 02:11:00,VALID,915.674,VALID,0,VALID,99.044,VALID,0.0339617,VALID,19.1813,VALID,224,VALID,0,
2000-12-23, 02:12:00,VALID,915.657,VALID,0,VALID,99.086,VALID,0.0169808,VALID,19.22,VALID,224,VALID,0,
2000-12-23, 02:13:00,VALID,915.654,VALID,0,VALID,99.1,VALID,0.0339617,VALID,19.2429,VALID,224,VALID,0,
2000-12-23, 02:14:00,VALID,915.651,VALID,0,VALID,99.0669,VALID,0.0169808,VALID,19.2364,VALID,224,VALID,0,
2000-12-23, 02:15:00,VALID,915.646,VALID,0,VALID,99.0249,VALID,0.0509425,VALID,19.2104,VALID,224,VALID,0,
2000-12-23, 02:16:00,VALID,915.634,VALID,0,VALID,98.9893,VALID,0,VALID,19.1684,VALID,224,VALID,0,
2000-12-23, 02:17:00,VALID,915.621,VALID,0,VALID,98.9092,VALID,0,VALID,19.104,VALID,224,VALID,0,
2000-12-23, 02:18:00,VALID,915.609,VALID,0,VALID,98.899,VALID,-0.0169808,VALID,19.0652,VALID,224,VALID,0,
2000-12-23, 02:19:00,VALID,915.587,VALID,0,VALID,98.9143,VALID,0,VALID,19.0458,VALID,224,VALID,0,
2000-12-23, 02:20:00,VALID,915.585,VALID,0,VALID,98.9079,VALID,0,VALID,19.0133,VALID,224,VALID,0,
2000-12-23, 02:21:00,VALID,915.565,VALID,0,VALID,98.81,VALID,0,VALID,18.9487,VALID,195,VALID,0,
2000-12-23, 02:22:00,VALID,915.579,VALID,0,VALID,98.7859,VALID,0.0169808,VALID,18.9032,VALID,159,VALID,0,
2000-12-23, 02:23:00,VALID,915.564,VALID,0,VALID,98.735,VALID,0,VALID,18.8386,VALID,149,VALID,0,
2000-12-23, 02:24:00,VALID,915.569,VALID,0,VALID,98.7554,VALID,0,VALID,18.8065,VALID,132,VALID,0,
2000-12-23, 02:25:00,VALID,915.565,VALID,0,VALID,98.8876,VALID,0,VALID,18.8356,VALID,131,VALID,0,
2000-12-23, 02:26:00,VALID,915.549,VALID,0,VALID,99.0008,VALID,-0.0169808,VALID,18.9002,VALID,131,VALID,0,
2000-12-23, 02:27:00,VALID,915.542,VALID,0,VALID,99.0529,VALID,0,VALID,18.9425,VALID,131,VALID,0,
2000-12-23, 02:28:00,VALID,915.549,VALID,0,VALID,99.0771,VALID,0,VALID,18.9718,VALID,131,VALID,0,
2000-12-23, 02:29:00,VALID,915.54,VALID,0,VALID,99.0338,VALID,0.0169808,VALID,18.9489,VALID,131,VALID,0,
2000-12-23, 02:30:00,VALID,915.558,VALID,0,VALID,98.9817,VALID,0,VALID,18.8875,VALID,131,VALID,0,
2000-12-23, 02:31:00,VALID,915.559,VALID,0,VALID,98.9448,VALID,0,VALID,18.8552,VALID,131,VALID,0,
2000-12-23, 02:32:00,VALID,915.563,VALID,0,VALID,99.0402,VALID,0,VALID,18.9132,VALID,131,VALID,0,
2000-12-23, 02:33:00,VALID,915.555,VALID,0,VALID,99.161,VALID,0,VALID,19.0558,VALID,69,VALID,0.104297,
2000-12-23, 02:34:00,VALID,915.568,VALID,0,VALID,99.2131,VALID,0.0169808,VALID,19.1264,VALID,359,VALID,0.177632,
2000-12-23, 02:35:00,VALID,915.57,VALID,0,VALID,99.208,VALID,0,VALID,19.1234,VALID,358,VALID,0.0943834,
2000-12-23, 02:36:00,VALID,915.578,VALID,0,VALID,99.1534,VALID,0,VALID,19.065,VALID,358,VALID,0.148638,
2000-12-23, 02:37:00,VALID,915.58,VALID,0,VALID,99.1114,VALID,-0.0169808,VALID,19.0038,VALID,358,VALID,0.00360577,
2000-12-23, 02:38:00,VALID,915.568,VALID,0,VALID,99.105,VALID,0.0169808,VALID,18.9942,VALID,358,VALID,0,
2000-12-23, 02:39:00,VALID,915.559,VALID,0,VALID,99.1928,VALID,0,VALID,19.0523,VALID,358,VALID,0,
2000-12-23, 02:40:00,VALID,915.562,VALID,0,VALID,99.2182,VALID,0,VALID,19.1045,VALID,358,VALID,0,
2000-12-23, 02:41:00,VALID,915.544,VALID,0,VALID,99.2271,VALID,0.0169808,VALID,19.1067,VALID,358,VALID,0,
2000-12-23, 02:42:00,VALID,915.533,VALID,0,VALID,99.2398,VALID,0,VALID,19.1266,VALID,358,VALID,0,
2000-12-23, 02:43:00,VALID,915.532,VALID,0,VALID,99.2869,VALID,0,VALID,19.1723,VALID,358,VALID,0,
2000-12-23, 02:44:00,VALID,915.522,VALID,0,VALID,99.3072,VALID,0,VALID,19.1974,VALID,341,VALID,0,
2000-12-23, 02:45:00,VALID,915.513,VALID,0,VALID,99.2983,VALID,0,VALID,19.2203,VALID,227,VALID,0,
2000-12-23, 02:46:00,VALID,915.508,VALID,0,VALID,99.2894,VALID,0,VALID,19.227,VALID,211,VALID,0,
2000-12-23, 02:47:00,VALID,915.493,VALID,0,VALID,99.2907,VALID,0,VALID,19.22,VALID,209,VALID,0,
2000-12-23, 02:48:00,VALID,915.47,VALID,0,VALID,99.2971,VALID,0.0169808,VALID,19.2198,VALID,216,VALID,0.259046,
2000-12-23, 02:49:00,VALID,915.46,VALID,0,VALID,99.3098,VALID,0,VALID,19.233,VALID,223,VALID,0.426309,
2000-12-23, 02:50:00,VALID,915.441,VALID,0,VALID,99.2894,VALID,0,VALID,19.2364,VALID,234,VALID,0.540396,
2000-12-23, 02:51:00,VALID,915.426,VALID,0,VALID,99.2831,VALID,0,VALID,19.223,VALID,239,VALID,0.614844,
2000-12-23, 02:52:00,VALID,915.396,VALID,0,VALID,99.2665,VALID,0,VALID,19.2332,VALID,239,VALID,0.484992,
2000-12-23, 02:53:00,VALID,915.38,VALID,0,VALID,99.2704,VALID,0,VALID,19.2138,VALID,234,VALID,0.31065,
2000-12-23, 02:54:00,VALID,915.374,VALID,0,VALID,99.2742,VALID,0,VALID,19.2074,VALID,226,VALID,0.122461,
2000-12-23, 02:55:00,VALID,915.378,VALID,0,VALID,99.2513,VALID,0,VALID,19.2009,VALID,182,VALID,0.000200321,
2000-12-23, 02:56:00,VALID,915.378,VALID,0,VALID,99.1953,VALID,0,VALID,19.1333,VALID,126,VALID,0.549554,
2000-12-23, 02:57:00,VALID,915.376,VALID,0,VALID,99.1775,VALID,-0.0169808,VALID,19.0913,VALID,128,VALID,0.65,
2000-12-23, 02:58:00,VALID,915.37,VALID,0,VALID,99.1941,VALID,-0.0169808,VALID,19.0742,VALID,132,VALID,0.769531,
2000-12-23, 02:59:00,VALID,915.361,VALID,0,VALID,99.2373,VALID,0,VALID,19.1037,VALID,139,VALID,0.727431,
2000-12-23, 03:00:00,VALID,915.354,VALID,0,VALID,99.2627,VALID,0,VALID,19.1266,VALID,154,VALID,0.695713,
2000-12-23, 03:01:00,VALID,915.342,VALID,0,VALID,99.2932,VALID,0,VALID,19.1487,VALID,168,VALID,0.678454,
2000-12-23, 03:02:00,VALID,915.339,VALID,0,VALID,99.2691,VALID,0,VALID,19.1423,VALID,162,VALID,0.590666,
2000-12-23, 03:03:00,VALID,915.329,VALID,0,VALID,99.2996,VALID,-0.0169808,VALID,19.1753,VALID,159,VALID,0.570313,
2000-12-23, 03:04:00,VALID,915.331,VALID,0,VALID,99.2945,VALID,0,VALID,19.2007,VALID,155,VALID,0.567491,
2000-12-23, 03:05:00,VALID,915.344,VALID,0,VALID,99.2576,VALID,-0.0339617,VALID,19.2173,VALID,154,VALID,0.486275,
2000-12-23, 03:06:00,VALID,915.344,VALID,0,VALID,99.2411,VALID,-0.0169808,VALID,19.2268,VALID,156,VALID,0.49116,
2000-12-23, 03:07:00,VALID,915.32,VALID,0,VALID,99.2424,VALID,-0.0169808,VALID,19.2459,VALID,161,VALID,0.532853,
2000-12-23, 03:08:00,VALID,915.311,VALID,0,VALID,99.2335,VALID,0,VALID,19.2789,VALID,172,VALID,0.572115,
2000-12-23, 03:09:00,VALID,915.298,VALID,0,VALID,99.2119,VALID,0.0169808,VALID,19.3172,VALID,170,VALID,0.403505,
2000-12-23, 03:10:00,VALID,915.274,VALID,0,VALID,99.1432,VALID,0,VALID,19.3431,VALID,185,VALID,0.520354,
2000-12-23, 03:11:00,VALID,915.262,VALID,0,VALID,99.0656,VALID,-0.0169808,VALID,19.3498,VALID,174,VALID,0.398638,
2000-12-23, 03:12:00,VALID,915.237,VALID,0,VALID,99.0224,VALID,-0.0679233,VALID,19.3629,VALID,177,VALID,0.482372,
2000-12-23, 03:13:00,VALID,915.22,VALID,0,VALID,98.9512,VALID,0,VALID,19.3632,VALID,177,VALID,0.502068,
2000-12-23, 03:14:00,VALID,915.209,VALID,0,VALID,98.9232,VALID,0,VALID,19.3622,VALID,170,VALID,0.499589,
2000-12-23, 03:15:00,VALID,915.204,VALID,0,VALID,98.9283,VALID,-0.0169808,VALID,19.3689,VALID,172,VALID,0.576436,
2000-12-23, 03:16:00,VALID,915.194,VALID,0,VALID,98.9168,VALID,-0.0509425,VALID,19.3759,VALID,173,VALID,0.476997,
2000-12-23, 03:17:00,VALID,915.202,VALID,0,VALID,98.9156,VALID,-0.0509425,VALID,19.3786,VALID,184,VALID,0.0527344,
2000-12-23, 03:18:00,VALID,915.198,VALID,0,VALID,98.9359,VALID,-0.0509425,VALID,19.3756,VALID,197,VALID,0,
2000-12-23, 03:19:00,VALID,915.196,VALID,0,VALID,98.9041,VALID,0,VALID,19.3918,VALID,198,VALID,0,
2000-12-23, 03:20:00,VALID,915.188,VALID,0,VALID,98.899,VALID,-0.0169808,VALID,19.3754,VALID,196,VALID,0,
2000-12-23, 03:21:00,VALID,915.193,VALID,0,VALID,98.9092,VALID,-0.0509425,VALID,19.3853,VALID,195,VALID,0,
2000-12-23, 03:22:00,VALID,915.161,VALID,0,VALID,98.9143,VALID,0,VALID,19.3781,VALID,192,VALID,0,
2000-12-23, 03:23:00,VALID,915.155,VALID,0,VALID,98.9448,VALID,0,VALID,19.3818,VALID,195,VALID,0,
2000-12-23, 03:24:00,VALID,915.128,VALID,0,VALID,98.9537,VALID,-0.0169808,VALID,19.3721,VALID,200,VALID,0,
2000-12-23, 03:25:00,VALID,915.127,VALID,0,VALID,98.9728,VALID,-0.0169808,VALID,19.3622,VALID,197,VALID,0,
2000-12-23, 03:26:00,VALID,915.105,VALID,0,VALID,98.9881,VALID,0,VALID,19.3622,VALID,196,VALID,0,
2000-12-23, 03:27:00,VALID,915.098,VALID,0,VALID,98.9881,VALID,0,VALID,19.3555,VALID,195,VALID,0,
2000-12-23, 03:28:00,VALID,915.08,VALID,0,VALID,99.0173,VALID,0,VALID,19.3721,VALID,202,VALID,0,
2000-12-23, 03:29:00,VALID,915.077,VALID,0,VALID,99.0326,VALID,0,VALID,19.3687,VALID,200,VALID,0,
2000-12-23, 03:30:00,VALID,915.061,VALID,0,VALID,99.0402,VALID,-0.0169808,VALID,19.3885,VALID,196,VALID,0,
2000-12-23, 03:31:00,VALID,915.059,VALID,0,VALID,99.044,VALID,0,VALID,19.3751,VALID,195,VALID,0,
2000-12-23, 03:32:00,VALID,915.052,VALID,0,VALID,99.0491,VALID,0,VALID,19.3784,VALID,195,VALID,0,
2000-12-23, 03:33:00,VALID,915.05,VALID,0,VALID,99.0605,VALID,-0.0169808,VALID,19.3883,VALID,195,VALID,0,
2000-12-23, 03:34:00,VALID,915.06,VALID,0,VALID,99.0567,VALID,-0.0339617,VALID,19.4082,VALID,195,VALID,0,
2000-12-23, 03:35:00,VALID,915.038,VALID,0,VALID,99.058,VALID,-0.0169808,VALID,19.4074,VALID,195,VALID,0,
2000-12-23, 03:36:00,VALID,915.026,VALID,0,VALID,99.0656,VALID,0,VALID,19.4109,VALID,195,VALID,0,
2000-12-23, 03:37:00,VALID,915.006,VALID,0,VALID,99.0618,VALID,0.0169808,VALID,19.4206,VALID,195,VALID,0,
2000-12-23, 03:38:00,VALID,914.999,VALID,0,VALID,99.0593,VALID,0.0169808,VALID,19.4238,VALID,195,VALID,0,
2000-12-23, 03:39:00,VALID,914.99,VALID,0,VALID,99.0516,VALID,0,VALID,19.4139,VALID,191,VALID,0,
2000-12-23, 03:40:00,VALID,915.002,VALID,0,VALID,99.0427,VALID,0,VALID,19.4107,VALID,186,VALID,0,
2000-12-23, 03:41:00,VALID,914.979,VALID,0,VALID,99.044,VALID,-0.0339617,VALID,19.4204,VALID,175,VALID,0,
2000-12-23, 03:42:00,VALID,914.989,VALID,0,VALID,99.0326,VALID,-0.0339617,VALID,19.4238,VALID,169,VALID,0,
2000-12-23, 03:43:00,VALID,914.966,VALID,0,VALID,99.0364,VALID,0,VALID,19.4141,VALID,166,VALID,0,